Orbital Elements at Epoch 2459200.5 (2020-Dec-17.0) TDB
Reference: JPL 24 (heliocentric ecliptic J2000)
Element | Value | Uncertainty (1-sigma) | Units |
e | .05836710347588905 | 4.3377e-08 | |
a | 3.150244984479583 | 2.5423e-08 | au |
q | 2.966374309496063 | 1.3694e-07 | au |
i | 9.931210349236084 | 4.9653e-06 | deg |
node | 230.5776785726863 | 2.5234e-05 | deg |
peri | 4.86247158303203 | 5.1091e-05 | deg |
M | 162.2588595977583 | 4.744e-05 | deg |
tp | 2458280.006261573619 (2018-Jun-10.50626157) | 0.00026506 | TDB |
period | 2042.278287022272 5.59 | 2.4722e-05 6.769e-08 | d yr |
n | .1762737244417827 | 2.1338e-09 | deg/d |
Q | 3.334115659463103 | 2.6907e-08 | au |
|
| | Orbit Determination Parameters
Additional Information
|